Regional Weather Roundup
Issued by NWS

Home | Current Version | Previous Version | Graphics & Text | Print | Product List | Glossary Off
Versions: 1 2 3 4 5 6 7 8 9 10 11 12 13 14 15 16 17 18 19 20 21 22 23 24 25 26 27 28 29 30 31 32 33 34 35 36 37 38 39 40 41 42 43 44 45 46 47 48 49 50

000
ASUS43 KMPX 020601
RWRMN
WEATHER ROUNDUP FOR MINNESOTA
NATIONAL WEATHER SERVICE TWIN CITIES/CHANHASSEN MN
100 AM CDT THU JUL 02 2015


NOTE: "FAIR" INDICATES FEW OR NO CLOUDS BELOW 12,000 FEET WITH NO
SIGNIFICANT WEATHER AND/OR OBSTRUCTIONS TO VISIBILITY. N/A MEANS
CURRENT SKY AND/OR WEATHER CONDITIONS ARE NOT AVAILABLE.

MNZ060>063-068>070-020700-
   Twin Cities Metro

CITY           SKY/WX    TMP DP  RH WIND       PRES   REMARKS
TWIN CITIES    CLEAR     62  53  72 CALM      30.00F
6HR MIN TEMP:  62; 6HR MAX TEMP:  72;

ST PAUL        CLEAR     60  55  83 CALM      30.01S
CRYSTAL        CLEAR     58  51  78 CALM      29.99F
EDEN PRAIRIE   CLEAR     59  53  80 CALM      30.00S
6HR MIN TEMP:  57; 6HR MAX TEMP:  69;

$$
MNZ001>005-007-008-013>017-022>024-027-028-020700-
   Northwest Minnesota

CITY           SKY/WX    TMP DP  RH WIND       PRES   REMARKS
THIEF RVR FALL CLEAR     63  57  82 S7        29.99R
DETROIT LAKES  CLEAR     63  55  77 SW6       30.02S
PARK RAPIDS    CLOUDY    64  55  72 S5        30.01R
$$
MNZ006-009>011-018-025>026-020700-
   North Central Minnesota

CITY           SKY/WX    TMP DP  RH WIND       PRES   REMARKS
BAUDETTE       CLEAR     59  56  89 CALM      29.95F
INTL FALLS     CLEAR     55  53  93 CALM      29.96S
6HR MIN TEMP:  52; 6HR MAX TEMP:  76;

WASKISH        CLEAR     61  59  94 CALM      29.97S
BIG FORK       FOG       57  55  94 CALM      29.99S VSB 3/4
LONGVILLE      CLEAR     61  61 100 SW5       29.99F
GRAND RAPIDS   PTCLDY    55  54  94 S5        30.00S
CRANE LAKE     PTCLDY    52  52 100 CALM      29.99F
ORR            CLEAR     61  55  82 CALM      29.97S
COOK           CLEAR     61  57  88 CALM      30.00S
WALKER         FAIR      62  58  87 SW3       30.00S
$$
MNZ012-019>021-037-020700-
   Northeast Minnesota

CITY           SKY/WX    TMP DP  RH WIND       PRES   REMARKS
DULUTH         CLEAR     56  50  80 CALM      30.01F
6HR MIN TEMP:  56; 6HR MAX TEMP:  68;

HIBBING        MOCLDY    55  54  96 CALM      30.00S
TWO HARBORS    CLEAR     54  48  82 N2        30.00F
SILVER BAY     CLEAR     48  46  93 CALM      30.00F
GRAND MARAIS     N/A     48  45  89 CALM      30.01S
$$
MNZ029>031-032-039>041-046>048-054>057-064-020700-
   West Central Minnesota

CITY           SKY/WX    TMP DP  RH WIND       PRES   REMARKS
WHEATON        CLEAR     54  54 100 SE7       30.02S
ALEXANDRIA     CLEAR     59  54  83 CALM      30.03S
WADENA           N/A     57  55  94 CALM      30.01S
APPLETON       CLEAR     57  52  82 CALM      30.00S
WILLMAR        FAIR      57  54  88 CALM      30.03S
$$
MNZ033>034-036-042>043-049>051-058-059-020700-
   Central Minnesota

CITY           SKY/WX    TMP DP  RH WIND       PRES   REMARKS
ST CLOUD       CLEAR     53  52  96 CALM      30.01S
6HR MIN TEMP:  53; 6HR MAX TEMP:  74;

BRAINERD       MOCLDY    59  55  87 S3        30.01F
BUFFALO        CLEAR     56  51  82 CALM      30.02S
$$
MNZ037-044-045-052-053-020700-
   East Central Minnesota

CITY           SKY/WX    TMP DP  RH WIND       PRES   REMARKS
CAMBRIDGE      CLEAR     59  52  77 CALM      30.00S
CLOQUET        CLEAR     55  52  88 CALM      30.02S
$$
MNZ071>073-080-081-089-090-097-098-020700-
   Southwest Minnesota

CITY           SKY/WX    TMP DP  RH WIND       PRES   REMARKS
MARSHALL       CLEAR     57  50  77 S6        30.00F
REDWOOD FALLS  LGT RAIN  57  52  83 CALM      30.01S
WORTHINGTON    CLEAR     55  50  82 E8        30.02S
SLAYTON        CLEAR     57  56  96 CALM      30.02F
$$
MNZ065>067-074>077-082>085-091>093-020700-
   South Central Minnesota

CITY           SKY/WX    TMP DP  RH WIND       PRES   REMARKS
MANKATO        CLEAR     55  48  76 SW5       30.02R
ST JAMES       CLEAR     55  52  88 CALM      30.03S
FAIRMONT       CLEAR     54  46  76 CALM      30.01S
OWATONNA       CLEAR     54  50  87 CALM      30.01S
$$
MNZ078>079-086>088-094>096-020700-
   Southeast Minnesota

CITY           SKY/WX    TMP DP  RH WIND       PRES   REMARKS
ROCHESTER      CLEAR     56  50  80 NE3       30.01S
6HR MIN TEMP:  56; 6HR MAX TEMP:  64;

STANTON        CLEAR     52  50  93 CALM      30.00S
AUSTIN         CLEAR     54  50  87 CALM      30.00F
$$
ABBREVIATIONS USED IN REMARKS
   TC - TEMPERATURES IN CELSIUS
  WCI - WIND CHILL INDEX
   HX - HEAT INDEX
  VSB - VISIBILITY
$$


USA.gov is the U.S. government's official web portal to all federal, state and local government web resources and services.